DELTA 1 DEB, 7014

Orbit data source: Space-Track

DELTA 1 DEB, 7014 is space debris in SSO originally from a launch on Tue, 06 Nov 1973 UTC launched from the Air Force Western Test Range (AFWTR). Debris objects in space refer to the collection of defunct objects orbiting the Earth. Examples of debris include non-operational satellites, rocket bodies, and fragments generated from explosions, collisions, or faulty payload assembly.

Loading next visibility...
Identifier
7014, 1973-086E
Orbit
SSO
Country
Flag of USUS
Related business
Manufacturer
Unknown
Mission
Spacecraft
Bus & Motor
Unknown
Mass
Unknown
Launch date (UTC)
1973-11-06 (52 years ago)
Launch vehicle
Unknown
Launch site
Air Force Western Test Range (AFWTR)
Object type
Payload
Rocket body
Debris
Shape & HBR
Unknown shape, 0.2 m
Radar Cross Section
Medium (>0.1 m² and <1 m²)

Expand to show TLE details & history
Last TLE update: 19 hours ago

TLE from 19 hours ago
0 DELTA 1 DEB
1  7014U 73086E   25353.38847343  .00000067  00000-0  19113-3 0  9995
2  7014 101.7191  34.7368 0403178 320.1069  37.1043 13.23208789512480
Epoch: 2025-12-19T09:19Z
TLE epoch observation values (Epoch: 2025-12-19T09:19:24.104Z)
Latitude
-0.00002°
Longitude
166.65603°
Altitude
937.03 km
Speed
7.499 km/s
True Right ascension
02h 18m 56s
True Declination
0° 00' 00"
Sunlit
Object was in full shadow at epoch
Visualization orbit readout
Latitude
Unknown
Longitude
Unknown
Altitude
Unknown
Speed
Unknown
Apparent Right ascension
Unknown
Apparent Declination
Unknown
Sunlit
N/A
Visualization observer readout
Local Sidereal Time
03:42:56
Azimuth
Unknown
Elevation
Unknown
Doppler factor
Unknown
Orbital elements
Apogee altitude
1,474.253 km
Perigee altitude
865.61 km
Semi-major axis
7,548.069 km
Eccentricity
0.04032
Inclination
101.7191°
RAAN
34.7368°
Arg. of periapsis
320.1069°
True anomaly
40.00671°
Mean anomaly
37.1043°
Eccentric anomaly
38.54371°
Mean motion
3.30971 °/min
Orbital period
108.77 mins
BSTAR
0.00019113
Loading maneuver chart data...
Computing Atmospheric mass density...
Loading historical data...
Loading historical data...
Loading historical data...
Loading historical data...
Loading historical data...
Loading historical data...
Loading historical data...

Documentation

Showing up to 5 results
|